Weather observations for the past three days for
El Monte
Imperial (Metric)
Date Time (pdt) Wind (mph) Vis. (mi.) Weather Sky Cond. Temperature (ºF) Relative Humidity Wind Chill (°F) Heat Index (°F) Pressure Precipitation (in)
Air Dwpt 6 hour altimeter (in) sea level (mb) 1 hr 3 hr 6 hr
Max. Min.
08 19:45 SW 6 10.00 Fair CLR 68 57.2 69% 29.93 0.0
08 18:45 SW 7 10.00 Fair CLR 71.6 57.2 61% 29.91 0.0
08 17:45 SW 9 10.00 Fair CLR 75.2 57.2 54% 78 29.91 0.0
08 16:45 SW 12 10.00 Fair CLR 78.8 57.2 48% 80 29.9 0.0
08 15:45 S 9 10.00 Fair CLR 78.8 57.2 48% 80 29.94 0.0
08 14:45 S 6 G 13 10.00 Fair CLR 78.8 57.2 48% 80 29.94 0.0
08 12:45 SW 5 G 12 10.00 Fair CLR 71.6 57.2 61% 29.98 0.0
08 11:45 Calm 8.00 A Few Clouds FEW030 69.8 57.2 64% 30 0.0
08 10:45 Calm 8.00 Overcast OVC012 66.2 55.4 68% 30.02 0.0
08 08:45 Calm 6.00 Overcast with Haze OVC012 62.6 55.4 77% 30.02 0.0
07 18:45 SW 9 10.00 Fair CLR 73.4 53.6 50% 29.93 0.0
07 17:45 SW 9 G 15 10.00 Fair CLR 75.2 55.4 50% 78 29.93 0.0
07 16:45 SW 8 10.00 Fair CLR 77 55.4 47% 79 29.92 0.0
07 15:45 SW 12 G 18 10.00 Fair CLR 78.8 57.2 48% 80 29.93 0.0
07 10:45 Calm 10.00 Fair CLR 71.6 53.6 53% 30.01 0.0
07 09:45 S 3 10.00 Fair CLR 69.8 53.6 57% 30.02 0.0
07 08:45 Calm 10.00 Fair CLR 64.4 53.6 68% 30.03 0.0
07 07:45 Calm 10.00 Fair CLR 60.8 53.6 77% 30.03 0.0
06 19:45 SW 6 10.00 Fair CLR 66.2 51.8 60% 30.02 0.0
06 18:45 SW 7 10.00 Fair CLR 69.8 51.8 53% 30 0.0
06 17:45 SW 9 10.00 Fair CLR 71.6 51.8 50% 29.99 0.0
06 16:45 SW 9 10.00 A Few Clouds FEW080 73.4 53.6 50% 29.98 0.0
06 15:45 SW 12 10.00 A Few Clouds FEW080 75.2 53.6 47% 78 29.99 0.0
06 14:45 E 3 10.00 A Few Clouds FEW035 75.2 51.8 44% 78 30 0.0
06 13:45 SW 6 10.00 A Few Clouds FEW035 71.6 50 47% 30.03 0.0
06 12:45 S 5 10.00 A Few Clouds FEW035 69.8 50 50% 30.05 0.0
06 11:45 Calm 10.00 A Few Clouds FEW035 66.2 50 56% 30.07 0.0
06 10:45 Calm 10.00 Partly Cloudy SCT035 64.4 50 60% 30.08 0.0
06 09:45 Calm 10.00 Partly Cloudy SCT035 64.4 51.8 64% 30.08 0.0
06 08:45 Calm 10.00 A Few Clouds FEW050 60.8 51.8 72% 30.09 0.0
06 07:45 Calm 10.00 A Few Clouds FEW050 118.4 48.2 10% 114 30.09 0.0
Date Time (pdt) Wind (mph) Vis. (mi.) Weather Sky Cond. Air Dwpt Max. Min. Relative Humidity Wind Chill (°F) Heat Index (°F) altimeter (in) sea level (mb) 1 hr 3 hr 6 hr
6 hour
Temperature (ºF) Pressure Precipitation (in)